Weather observations for the past three days for
South Lake Tahoe, Lake Tahoe Airport
Imperial (Metric)
Date Time (pdt) Wind (mph) Vis. (mi.) Weather Sky Cond. Temperature (ºF) Relative Humidity Wind Chill (°F) Heat Index (°F) Pressure Precipitation (in)
Air Dwpt 6 hour altimeter (in) sea level (mb) 1 hr 3 hr 6 hr
Max. Min.
16 08:53 Calm 10.00 Fair CLR 66 53.1 63% 30.3 1020.3
16 07:53 Calm 10.00 A Few Clouds FEW100 57 50 78% 30.3 1021.1
16 06:53 S 3 10.00 Fair CLR 48.9 46.9 93% 30.3 1021.5
16 05:53 Calm 10.00 Fair CLR 48.9 46.9 93% 30.3 1021.4
16 04:53 Calm 10.00 Mostly Cloudy BKN100 50 48 57.9 48.9 93% 30.29 1021.2
16 03:53 S 3 10.00 Partly Cloudy SCT110 51.1 48 89% 30.28 1020.7
16 02:53 Calm 10.00 A Few Clouds FEW110 52 48.9 89% 30.29 1021.0
16 01:53 Calm 10.00 Partly Cloudy SCT110 54 51.1 90% 30.29 1020.7
16 00:53 S 3 10.00 Mostly Cloudy BKN110 55 52 90% 30.3 1021.2
15 23:53 S 3 10.00 Mostly Cloudy BKN110 57 53.1 87% 30.31 1020.2
15 22:53 Calm 10.00 Overcast OVC110 57.9 54 64.9 57.9 87% 30.31 1020.2
15 21:53 S 3 10.00 Overcast OVC110 57.9 54 87% 30.31 1020.4
15 20:53 Calm 10.00 A Few Clouds FEW110 59 54 83% 30.31 1020.9
15 19:53 Calm 10.00 Partly Cloudy SCT110 62.1 55 78% 30.31 1021.5
15 18:53 SW 3 10.00 Mostly Cloudy BKN110 64.9 52 63% 30.31 1022.3
15 17:53 SE 5 10.00 Overcast OVC100 64.9 53.1 66% 30.33 1023.2
15 16:53 S 3 10.00 Overcast OVC095 64 54 75.9 59 70% 30.35 1024.0 0.16
15 15:53 SE 3 10.00 Overcast OVC090 64 55.9 75% 30.36 1024.1 0.01
15 14:53 W 3 10.00 Light Rain OVC080 63 52 68% 30.37 1024.3
15 13:53 W 3 10.00 Thunderstorm in Vicinity FEW033 BKN080 OVC100 63 57.9 84% 30.35 1023.6 0.12 0.15
15 12:53 Calm 2.50 Rain FEW080 OVC110 63 57.9 84% 30.35 1023.5 0.03
15 11:53 N 7 10.00 Fair CLR 75 51.1 43% 78 30.35 1022.0
15 10:53 NE 7 10.00 Fair CLR 73.9 50 73.9 42.1 43% 30.36 1022.2
15 09:53 Calm 10.00 A Few Clouds FEW120 71.1 46.9 42% 30.37 1022.5
15 08:53 Calm 10.00 Overcast OVC120 64.9 48 54% 30.38 1023.3
15 07:53 Calm 10.00 Mostly Cloudy BKN120 54 46 75% 30.38 1023.9
15 06:53 Calm 10.00 Fair CLR 44.1 42.1 93% 30.37 1024.2
15 05:53 Calm 10.00 Fair CLR 43 39.9 89% 30.36 1023.5
15 04:53 S 5 10.00 Fair CLR 44.1 41 53.1 44.1 89% 42 30.36 1023.3
15 03:53 S 3 10.00 Fair CLR 45 42.1 90% 30.35 1022.9
15 02:53 S 3 10.00 Fair CLR 46 43 89% 30.36 1023.2
15 01:53 S 5 10.00 Fair CLR 48 44.1 86% 47 30.36 1023.7
15 00:53 S 5 10.00 Fair CLR 48.9 46 90% 48 30.37 1023.5
14 23:53 Calm 10.00 Fair CLR 50 46.9 89% 30.38 1023.4
14 22:53 Calm 10.00 Fair CLR 53.1 48.9 75 52 86% 30.38 1023.1
14 21:53 Calm 10.00 Fair CLR 55.9 50 81% 30.37 1022.9
14 20:53 Calm 10.00 Fair CLR 59 51.1 75% 30.35 1022.6
14 19:53 Calm 10.00 Fair CLR 64 51.1 63% 30.34 1022.3
14 18:53 N 3 10.00 Fair CLR 66.9 51.1 57% 30.34 1022.3
14 17:53 Calm 10.00 Fair CLR 72 52 50% 30.35 1022.2
14 16:53 Calm 10.00 Fair CLR 71.1 51.1 73.9 63 49% 30.37 1022.7 0.04
14 15:53 Calm 10.00 Overcast OVC110 72 45 38% 30.38 1023.2
14 14:53 S 8 10.00 Overcast OVC100 70 48 46% 30.4 1024.2
14 13:53 Calm 10.00 Overcast OVC095 64.9 59 81% 30.4 1024.8 0.04 0.04
14 12:53 Calm 10.00 Overcast SCT065 OVC095 70 52 53% 30.39 1023.9
14 11:53 N 6 10.00 Mostly Cloudy FEW060 BKN110 72 52 50% 30.39 1023.4
14 10:53 N 5 10.00 Partly Cloudy SCT110 73 53.1 73 53.1 50% 30.39 1023.0
14 09:53 N 3 10.00 Fair CLR 69.1 53.1 57% 30.39 1023.5
14 08:53 Calm 10.00 Mostly Cloudy FEW090 BKN120 62.1 55 78% 30.4 1024.1
14 07:53 Calm 10.00 Overcast OVC085 57 54 90% 30.38 1024.0
14 06:53 Calm 10.00 Overcast OVC085 55 53.1 93% 30.35 1023.4
14 05:53 S 5 10.00 Overcast OVC100 53.1 51.1 93% 30.33 1022.9
14 04:53 Calm 10.00 Fair CLR 54 52 55.9 53.1 93% 30.32 1022.2
14 03:53 Calm 10.00 Fair CLR 53.1 52 96% 30.32 1020.6
14 02:53 S 3 10.00 Fair CLR 53.1 52 96% 30.33 1019.8
14 01:53 Calm 10.00 Fair CLR 53.1 52 96% 30.33 1020.6
14 00:53 SW 3 10.00 Fair CLR 54 52 93% 30.34 1020.4
13 23:53 Calm 10.00 Fair CLR 55 53.1 93% 30.35 1020.6
13 22:53 SE 5 10.00 Fair CLR 55.9 55 62.1 55.9 97% 30.35 1020.8 0.14
13 21:53 Calm 10.00 Fair CLR 57 55 93% 30.34 1021.6
13 20:53 SW 3 10.00 Fair CLR 59 55.9 90% 30.33 1021.3
13 19:53 Calm 10.00 Partly Cloudy FEW065 SCT095 SCT110 60.1 55 84% 30.34 1022.5 0.14
13 18:53 Calm 10.00 A Few Clouds FEW120 57.9 55.9 93% 30.36 1023.7 0.02
13 17:53 SW 12 G 21 2.00 Heavy Rain FEW023 BKN070 OVC090 59 54 83% 30.39 1024.4 0.12
13 16:53 Vrbl 6 9.00 Thunderstorm in Vicinity Light Rain FEW060 BKN080 OVC100 60.1 55 88 60.1 84% 30.4 1024.3 0.07 0.07
13 15:53 SE 8 G 33 10.00 Thunderstorm OVC100 79 42.1 27% 78 30.31 1019.1
13 14:53 N 9 10.00 Fair CLR 88 43 21% 85 30.27 1016.5
13 13:53 N 7 10.00 Mostly Cloudy FEW070 BKN110 82.9 43 24% 81 30.3 1017.9
13 12:53 Calm 10.00 Fair CLR 86 39 19% 83 30.29 1017.8
13 11:53 NE 6 10.00 Fair CLR 84 39 20% 81 30.31 1018.5
13 10:53 N 5 10.00 Fair CLR 82.9 39.9 82.9 54 22% 81 30.32 1019.1
13 09:53 Calm 10.00 Mostly Cloudy BKN120 70 48 46% 30.34 1020.8
Date Time (pdt) Wind (mph) Vis. (mi.) Weather Sky Cond. Air Dwpt Max. Min. Relative Humidity Wind Chill (°F) Heat Index (°F) altimeter (in) sea level (mb) 1 hr 3 hr 6 hr
6 hour
Temperature (ºF) Pressure Precipitation (in)